Wind_Speed
4 5 5 5 6 6 6 6 6 5 5 5 5 5 5 4 4 3 3 3 3 3 2 2 2 1 0 0 1 2 3 3 3 4 4 4 4 4 5 5 5 5 6
5 5 5 5 5 5 5 5 5 5 4 4 4 4 4 4 3 3 2 2 1 1 2 2 1 1 1 2 2 3 3 4 4 5 5 5 5 6 6 7 7 7 7
5 5 6 5 5 4 4 4 4 3 3 2 2 2 2 2 2 2 1 1 0 1 1 2 2 2 2 2 3 3 4 5 5 6 6 7 7 8 8 8 8 9 9
5 5 6 5 5 5 4 4 3 3 2 2 2 1 1 1 1 0 1 1 2 2 2 2 3 3 4 4 4 5 5 6 7 7 8 8 9 9 10 10 10 10 10
5 5 6 6 5 5 4 3 3 2 2 2 1 1 1 1 1 2 2 2 3 3 3 4 4 5 5 5 6 7 7 7 8 9 9 10 10 11 11 11 11 12 12
5 5 6 6 6 5 5 4 3 3 3 3 2 2 2 2 3 3 3 4 4 5 5 5 6 6 7 7 8 8 9 9 10 11 11 12 13 13 13 13 13 13 14
6 6 6 6 7 6 5 5 5 4 4 4 4 4 4 4 4 5 5 6 7 7 7 8 8 9 9 10 10 10 11 12 12 13 13 14 15 15 15 15 15 16 16
6 6 7 7 7 7 7 6 6 5 5 5 5 6 6 6 6 7 7 8 8 9 9 10 11 11 12 12 13 13 14 14 15 15 15 16 16 17 17 17 18 18 18
6 6 7 7 8 8 8 7 7 6 6 6 7 7 8 8 8 8 9 9 10 11 12 12 13 13 14 14 15 16 17 17 17 17 18 18 18 18 18 19 20 20 20
6 6 7 7 8 8 9 9 8 8 8 8 8 8 9 9 10 10 11 11 12 13 13 14 15 15 15 16 17 18 18 19 19 19 20 20 20 20 21 21 21 22 22
7 7 7 7 8 8 9 9 9 9 9 9 9 10 11 11 12 12 13 14 14 15 15 16 16 17 17 17 18 18 19 20 20 20 21 21 21 21 22 22 22 23 24
7 7 7 7 8 8 9 10 11 11 11 11 11 12 12 13 13 14 14 15 16 16 16 17 17 17 18 19 19 20 20 20 21 21 22 23 23 23 24 25 26 26 26
8 8 9 9 9 9 10 11 12 12 13 13 13 14 14 15 15 16 16 16 17 18 18 19 19 19 20 20 21 21 21 22 22 23 24 24 25 26 26 27 27 28 29
8 9 10 10 10 11 12 12 12 13 14 14 15 15 16 16 17 17 17 18 19 19 19 20 21 21 21 21 22 22 23 24 25 25 26 26 27 27 27 27 28 29 30
9 10 10 11 11 12 13 14 14 14 15 15 16 16 16 17 18 18 19 19 20 20 21 21 22 23 23 23 23 25 25 26 27 28 28 28 28 27 28 28 29 30 31
10 10 11 11 11 12 13 14 15 15 15 15 16 16 17 18 19 20 20 20 20 21 22 22 23 24 24 25 25 26 26 27 28 28 29 29 29 29 30 30 31 31 32
10 11 11 11 12 12 13 13 14 15 16 16 17 18 18 19 19 20 21 21 22 21 22 23 24 25 26 27 27 28 28 29 29 30 30 31 32 32 32 32 33 33 33
11 12 12 12 12 13 14 14 15 15 16 17 18 19 19 20 21 21 21 21 21 22 23 24 25 26 27 27 28 29 30 30 30 31 32 32 33 33 34 34 34 34 34
11 12 12 13 13 13 14 15 16 16 17 17 18 18 19 19 20 21 22 22 22 23 25 26 26 27 28 28 28 29 30 31 31 32 33 33 34 34 35 34 34 34 34
11 11 12 13 13 14 15 16 17 17 18 19 19 20 20 21 21 21 22 23 24 25 26 27 27 28 29 29 30 30 31 32 33 33 33 34 34 34 35 35 36 36 35
12 12 13 14 15 15 16 17 18 19 19 20 20 21 22 23 23 24 24 24 25 27 28 28 28 29 30 30 30 31 32 33 33 34 34 34 34 35 35 36 36 36 36
13 13 14 15 16 17 18 18 19 20 21 22 22 23 24 25 25 26 26 26 27 28 28 28 29 30 30 30 31 31 32 33 33 34 35 35 35 35 36 36 36 37 37
14 15 15 17 17 18 19 21 22 22 23 24 24 24 24 25 26 27 27 27 28 29 29 29 29 30 31 31 31 32 33 34 34 35 36 36 36 36 36 37 37 37 38
16 17 18 19 19 20 21 22 23 23 23 24 24 25 25 26 26 26 27 28 29 29 30 30 31 31 32 32 33 33 34 35 35 35 35 36 37 37 37 37 37 38 37
19 19 20 21 21 21 21 22 23 23 24 25 25 25 26 26 26 26 27 28 30 30 30 31 32 33 33 33 33 34 34 35 34 35 35 36 37 37 37 37 36 36 36
21 21 22 22 22 22 22 23 24 25 25 25 26 26 27 28 28 28 29 30 31 31 31 32 32 32 33 33 33 34 34 34 35 36 36 36 36 36 36 36 35 35 34
Wind_Direction
150 141 137 133 126 123 119 113 110 106 105 107 111 109 107 105 103 107 115 119 127 135 144 147 141 147 199 278 276 264 265 269 270 271 268 271 272 275 277 281 284 287 289
159 152 144 143 139 137 131 124 120 115 109 104 111 113 106 99 103 112 119 118 123 144 162 174 194 223 258 279 292 282 280 272 271 274 272 275 276 279 282 285 286 285 286
166 165 160 151 151 152 144 136 132 127 121 115 117 120 112 97 108 123 139 139 181 202 205 215 232 245 264 279 284 287 285 281 277 277 277 278 279 280 283 285 288 289 288
178 171 172 165 164 163 163 160 158 150 145 139 124 132 135 137 141 204 235 256 259 256 252 254 261 263 266 272 280 287 293 291 285 282 282 281 282 283 282 283 286 286 287
184 179 182 182 182 183 184 181 180 182 184 184 188 190 205 228 251 263 257 261 264 264 265 267 272 270 267 271 278 283 290 293 289 286 284 284 285 286 284 284 283 283 282
191 193 196 200 203 204 206 207 211 215 215 219 234 251 256 267 272 273 267 264 268 271 270 272 276 276 272 273 280 283 287 290 289 286 284 285 284 282 283 282 283 283 283
204 207 211 211 213 215 218 221 225 230 236 238 247 256 263 269 271 275 275 271 270 271 273 275 277 279 278 278 279 282 286 287 287 287 287 288 285 281 282 281 281 282 283
213 212 216 219 219 221 223 224 229 236 241 247 251 256 261 265 270 275 278 278 277 277 277 278 279 281 281 283 282 283 285 285 283 284 286 289 286 283 282 280 280 282 283
222 224 228 229 231 232 232 231 234 239 248 256 258 261 264 265 271 275 277 279 279 279 280 280 280 281 281 282 284 284 284 286 283 281 283 285 284 283 282 281 282 282 282
230 234 238 240 240 240 239 239 239 243 249 257 262 267 269 270 273 276 278 280 282 282 283 281 281 281 282 284 286 287 288 289 287 284 283 283 284 283 283 282 281 281 280
239 246 249 247 246 244 243 242 245 249 254 258 263 268 270 273 274 275 277 279 282 283 283 283 283 282 282 283 286 288 289 289 288 287 285 284 284 284 284 283 282 282 281
248 252 253 252 250 249 250 251 254 258 262 264 266 269 271 273 275 276 278 279 282 285 285 284 286 286 283 283 285 286 288 288 287 286 286 286 286 285 284 283 283 283 283
255 257 256 258 257 259 259 259 260 262 264 265 267 269 271 273 276 277 280 282 282 284 286 285 286 286 285 283 283 284 286 287 288 287 288 289 288 287 285 284 284 283 284
263 262 259 262 262 262 263 264 265 266 267 269 271 273 273 275 277 278 281 282 282 284 284 284 284 284 284 285 284 285 285 287 289 288 288 290 291 289 288 287 285 283 284
266 265 264 264 264 264 265 267 267 268 269 270 273 274 275 277 278 279 281 282 282 282 284 286 286 284 285 286 285 285 286 287 288 288 289 290 291 290 288 289 288 287 286
265 265 265 266 266 267 268 266 266 269 274 274 274 275 276 277 279 281 282 282 281 283 282 285 285 286 286 287 287 288 289 289 288 288 290 289 288 287 287 287 288 289 287
272 271 271 269 267 270 272 272 272 272 275 277 279 279 280 280 282 283 284 282 283 284 284 285 286 287 287 288 289 290 290 290 288 288 288 287 287 288 288 288 289 289 288
276 275 273 272 272 274 273 274 276 279 280 280 282 283 283 283 284 284 285 286 285 285 286 287 288 288 288 290 291 290 291 290 289 288 288 287 288 288 289 290 289 290 289
279 277 273 275 277 277 277 276 278 280 283 284 285 286 287 287 288 287 287 287 287 287 288 288 289 290 290 290 291 291 292 291 291 291 290 289 289 289 290 291 290 290 289
281 278 279 278 280 279 277 278 280 282 285 286 287 288 288 288 288 288 289 288 287 287 288 289 289 290 290 290 290 291 291 291 291 292 292 291 291 291 291 291 292 292 291
285 282 283 283 283 282 281 281 282 285 287 288 289 290 290 288 287 287 288 288 288 288 288 289 289 289 290 291 292 292 292 292 292 293 293 293 293 293 292 292 292 292 291
291 287 287 288 287 286 284 284 286 287 288 288 289 290 290 289 287 287 287 288 288 289 288 289 290 291 291 292 293 293 293 293 293 293 293 293 294 294 294 293 292 292 292
291 291 291 290 288 288 287 287 289 289 290 291 291 292 293 291 290 289 289 288 289 290 290 291 292 292 292 293 294 294 295 294 294 295 294 294 295 295 294 293 292 292 292
290 291 293 293 292 289 289 289 290 291 291 291 292 293 293 293 293 292 291 291 292 291 292 292 293 293 293 294 294 295 295 294 294 294 295 295 296 296 295 294 293 293 292
287 288 291 292 292 292 293 292 293 293 292 292 293 294 296 296 295 295 295 295 294 293 292 293 294 293 293 294 294 295 295 295 295 296 297 297 296 296 296 295 294 293 292
286 287 289 291 291 292 294 294 294 294 293 294 294 295 296 297 295 295 296 296 296 295 293 294 295 294 295 295 294 295 295 295 296 297 298 297 296 296 296 296 296 294 293
Height
5903 5904 5904 5905 5905 5905 5906 5906 5907 5907 5907 5907 5907 5907 5907 5907 5908 5908 5908 5908 5908 5908 5908 5908 5908 5909 5908 5909 5908 5908 5908 5908 5908 5908 5908 5908 5908 5908 5907 5907 5907 5906 5906
5903 5904 5905 5905 5905 5906 5906 5907 5907 5907 5908 5908 5908 5908 5908 5908 5908 5908 5908 5908 5908 5908 5908 5908 5908 5908 5908 5908 5908 5908 5908 5908 5908 5908 5907 5907 5907 5907 5906 5906 5906 5905 5905
5903 5904 5905 5905 5906 5906 5907 5907 5907 5908 5908 5908 5908 5908 5908 5908 5908 5909 5909 5908 5908 5908 5908 5908 5908 5908 5908 5908 5908 5907 5907 5907 5907 5906 5906 5906 5906 5905 5905 5904 5904 5903 5903
5903 5904 5905 5905 5906 5906 5907 5907 5908 5908 5908 5908 5909 5908 5908 5908 5909 5909 5909 5908 5908 5908 5908 5908 5908 5908 5907 5907 5907 5907 5906 5906 5905 5905 5905 5904 5904 5903 5903 5902 5902 5901 5901
5903 5904 5904 5905 5906 5906 5907 5907 5908 5908 5908 5908 5908 5908 5908 5908 5908 5908 5908 5908 5908 5908 5907 5907 5907 5907 5906 5906 5906 5905 5905 5904 5904 5903 5903 5902 5902 5901 5900 5900 5899 5899 5898
5902 5903 5904 5904 5905 5906 5906 5907 5907 5907 5907 5908 5908 5908 5908 5908 5908 5908 5907 5907 5907 5907 5907 5906 5906 5905 5905 5905 5904 5904 5903 5903 5902 5901 5901 5900 5899 5898 5898 5897 5896 5896 5895
5902 5902 5903 5904 5904 5905 5905 5906 5906 5906 5907 5907 5907 5907 5907 5907 5907 5907 5906 5906 5906 5906 5905 5905 5905 5904 5903 5903 5902 5902 5901 5901 5900 5899 5898 5897 5896 5895 5895 5894 5893 5893 5892
5901 5901 5902 5903 5903 5904 5904 5905 5905 5906 5906 5906 5906 5906 5906 5907 5906 5905 5905 5905 5904 5904 5903 5903 5902 5902 5901 5901 5900 5899 5898 5897 5897 5895 5895 5893 5892 5892 5891 5890 5889 5889 5888
5900 5900 5901 5901 5902 5902 5903 5903 5904 5904 5905 5905 5905 5905 5905 5905 5904 5904 5903 5903 5902 5902 5901 5901 5900 5899 5898 5898 5897 5896 5895 5894 5893 5892 5891 5889 5888 5887 5887 5886 5885 5884 5883
5899 5899 5900 5900 5900 5901 5902 5902 5902 5902 5903 5903 5903 5903 5903 5903 5902 5902 5901 5901 5900 5899 5898 5898 5897 5896 5895 5894 5893 5892 5891 5890 5888 5887 5886 5885 5884 5883 5882 5881 5880 5879 5877
5897 5898 5898 5898 5899 5899 5900 5900 5900 5901 5901 5901 5901 5901 5901 5900 5899 5899 5899 5898 5897 5896 5895 5894 5893 5892 5891 5890 5889 5888 5887 5886 5884 5883 5882 5881 5879 5878 5877 5876 5875 5873 5872
5896 5896 5896 5896 5897 5897 5898 5898 5898 5898 5899 5899 5898 5898 5898 5897 5897 5896 5895 5894 5893 5892 5891 5890 5889 5888 5887 5886 5885 5884 5882 5881 5879 5878 5877 5876 5874 5873 5872 5870 5869 5867 5866
5894 5894 5894 5894 5895 5895 5895 5895 5895 5895 5896 5896 5895 5895 5895 5894 5894 5893 5892 5891 5889 5888 5887 5886 5885 5884 5882 5881 5880 5879 5877 5876 5874 5873 5871 5870 5868 5867 5865 5864 5862 5861 5859
5892 5892 5892 5892 5892 5892 5892 5892 5892 5892 5892 5892 5892 5891 5891 5890 5890 5889 5888 5887 5885 5884 5883 5881 5880 5879 5878 5876 5875 5873 5872 5870 5869 5867 5865 5864 5862 5860 5858 5856 5855 5853 5852
5890 5890 5889 5889 5889 5889 5889 5889 5889 5888 5888 5888 5887 5887 5887 5886 5885 5884 5883 5882 5881 5880 5878 5876 5875 5874 5872 5871 5869 5867 5866 5864 5862 5861 5859 5857 5855 5853 5851 5850 5848 5846 5844
5887 5887 5886 5886 5886 5886 5885 5885 5885 5885 5884 5884 5883 5882 5882 5881 5880 5879 5878 5877 5876 5875 5873 5871 5869 5868 5866 5865 5863 5861 5859 5857 5855 5854 5852 5850 5848 5846 5844 5842 5840 5838 5836
5885 5884 5884 5883 5883 5882 5882 5882 5882 5881 5881 5880 5879 5878 5877 5877 5875 5874 5873 5872 5871 5869 5868 5866 5864 5862 5860 5858 5856 5854 5852 5850 5848 5846 5844 5842 5840 5838 5835 5833 5831 5829 5827
5882 5881 5881 5880 5880 5879 5879 5878 5878 5877 5877 5876 5875 5874 5873 5872 5870 5869 5868 5866 5865 5863 5862 5860 5858 5856 5854 5852 5850 5848 5845 5843 5841 5839 5836 5834 5832 5829 5827 5825 5823 5820 5818
5879 5878 5878 5877 5877 5876 5876 5875 5874 5874 5873 5872 5870 5869 5868 5866 5865 5863 5862 5860 5859 5857 5856 5854 5852 5849 5847 5845 5843 5841 5838 5835 5833 5831 5828 5826 5823 5821 5818 5816 5813 5811 5809
5876 5875 5875 5874 5873 5873 5872 5871 5870 5869 5868 5867 5866 5864 5863 5861 5859 5858 5856 5854 5853 5851 5849 5847 5845 5843 5841 5838 5836 5833 5831 5828 5825 5823 5820 5817 5814 5812 5809 5807 5804 5802 5799
5873 5872 5872 5871 5870 5869 5868 5867 5866 5865 5863 5862 5860 5859 5857 5855 5853 5852 5850 5848 5846 5844 5842 5840 5838 5835 5833 5831 5828 5825 5823 5820 5817 5814 5811 5808 5806 5803 5800 5797 5794 5791 5789
5870 5869 5868 5867 5866 5865 5864 5862 5861 5860 5858 5857 5855 5853 5851 5849 5847 5845 5843 5841 5839 5837 5835 5833 5830 5828 5825 5823 5820 5817 5814 5812 5809 5806 5802 5799 5796 5794 5791 5788 5784 5781 5779
5867 5866 5864 5863 5862 5860 5859 5858 5856 5855 5853 5851 5848 5847 5845 5842 5840 5838 5836 5834 5832 5829 5827 5825 5823 5820 5818 5815 5812 5809 5806 5803 5800 5796 5793 5790 5787 5784 5781 5778 5774 5771 5768
5863 5862 5860 5859 5857 5855 5854 5852 5851 5849 5847 5845 5843 5841 5838 5836 5833 5831 5829 5827 5824 5822 5819 5817 5815 5812 5809 5806 5803 5800 5797 5794 5790 5787 5784 5781 5777 5774 5771 5768 5764 5761 5758
5859 5857 5855 5854 5852 5850 5848 5847 5845 5843 5841 5839 5836 5834 5832 5829 5827 5824 5822 5819 5817 5814 5811 5809 5806 5803 5800 5797 5794 5791 5788 5784 5781 5778 5774 5771 5768 5764 5761 5757 5754 5751 5748
5853 5852 5850 5848 5846 5845 5843 5841 5839 5836 5834 5832 5830 5827 5825 5822 5819 5817 5814 5811 5809 5806 5803 5801 5798 5795 5791 5788 5785 5782 5779 5776 5772 5769 5765 5761 5758 5754 5751 5748 5744 5740 5737